{"data":{"norad_id":58053,"epoch":"2026-09-20T07:10:17.566752Z","epoch_age_seconds":155005,"freshness":"FRESH","line1":"1 58053U 23158C   26263.29881443  .00000151  00000+0  15009-4 0  9993","line2":"2 58053  43.0047   7.9225 0001946 281.1709  78.8924 15.27578211163337","mean_motion":15.27578211,"eccentricity":0.0001946,"inclination_deg":43.0047,"raan_deg":7.9225,"arg_perigee_deg":281.1709,"mean_anomaly_deg":78.8924,"bstar":1.5009e-5,"rev_number":16333,"period_min":94.266859112721,"perigee_km":481.71926509772,"apogee_km":484.38964081122,"semimajor_km":6861.1914529545,"source":"CELESTRAK","updated_at":"2026-09-21T09:00:33.777318Z"}}